Wind_Speed
40 40 40 40 39 39 38 37 37 36 35 33 33 34 33 32 30 28 28 28 27 27 28 28 27 27 26 25 23 23 22 22 22 24 27 30 31 33 34 37 41 42 41 40 39 38 36 34 32 30 29 29 27 25 25 24 25 25 25 25 25 24 24 25 29 33 31 29 31 33 32 31 32 34 37 39 38 38 40 39 36 36 36 35 35
41 41 41 41 41 41 40 39 39 38 37 36 34 34 35 35 34 31 30 29 27 27 28 27 27 26 27 26 24 24 23 22 23 24 26 29 31 33 34 37 40 42 41 40 39 37 36 33 31 30 29 28 26 25 24 24 24 25 25 25 26 25 25 25 27 30 32 32 31 34 33 30 32 36 37 38 39 40 42 40 38 37 37 36 35
42 41 41 42 41 41 41 40 39 38 38 38 38 37 36 37 37 35 33 31 29 28 27 27 27 26 27 27 26 25 25 24 24 25 27 29 30 31 34 36 38 40 41 40 38 37 36 33 31 29 28 28 26 24 24 24 24 25 25 25 26 26 25 24 26 28 32 33 32 32 34 33 35 38 37 37 39 41 43 43 40 38 37 35 35
41 41 41 42 42 42 42 41 40 39 39 39 39 39 38 38 38 37 34 32 31 30 29 28 27 27 27 28 27 27 27 26 26 27 28 29 29 30 33 36 38 39 40 40 38 36 36 33 30 28 28 27 25 24 24 24 25 25 26 25 26 26 25 24 26 27 30 34 34 32 34 36 36 36 36 37 39 41 43 43 40 38 37 35 36
41 41 41 41 42 42 41 40 40 40 40 40 40 39 38 38 38 36 34 32 32 32 31 29 29 29 29 28 27 27 27 27 28 28 28 29 29 30 32 35 37 37 38 39 37 36 35 32 29 28 28 28 26 25 24 24 25 26 26 26 25 26 25 25 26 27 30 34 36 35 34 36 37 37 37 38 40 43 43 41 39 37 36 37 39
41 41 40 41 42 42 41 40 40 40 41 42 41 38 37 37 37 36 32 31 32 33 33 30 30 31 30 28 27 27 27 27 29 29 30 29 29 31 33 35 36 36 36 37 36 35 34 31 29 28 29 28 26 25 24 24 25 25 25 25 25 25 25 25 25 27 30 33 35 35 34 35 37 37 37 37 40 43 43 40 36 32 34 39 45
41 41 40 41 42 42 41 40 40 41 41 42 41 38 36 35 35 35 32 30 30 31 33 32 30 31 30 28 27 27 28 29 30 30 31 30 30 31 34 35 36 36 35 35 35 35 34 31 29 29 28 27 26 24 23 23 24 25 24 24 24 25 25 25 25 27 30 32 33 34 35 36 36 37 37 37 38 38 35 33 33 34 38 45 50
41 41 40 41 41 41 40 39 39 40 40 40 40 37 36 34 33 32 30 29 29 29 30 31 30 31 31 29 28 28 29 31 31 31 31 31 31 32 34 35 35 35 35 35 35 35 33 31 30 29 28 26 25 23 22 22 23 24 24 23 25 25 25 25 26 27 29 30 32 34 35 36 37 37 36 35 34 33 30 30 36 42 46 50 51
41 40 40 41 41 41 40 39 39 39 39 39 37 35 35 34 31 30 29 28 27 28 28 28 29 30 32 31 30 29 30 32 31 30 30 30 31 33 34 34 34 34 35 35 35 34 33 32 30 29 27 26 24 23 22 22 23 24 23 24 25 25 26 26 26 26 27 30 32 33 34 37 38 37 34 31 32 35 35 35 42 47 49 52 52
41 40 41 41 41 40 39 39 39 39 39 37 36 34 35 34 31 28 28 27 26 26 27 27 28 29 32 33 31 31 31 31 30 28 28 29 31 32 34 34 34 34 35 35 35 34 33 32 30 28 27 25 24 23 22 22 23 23 23 23 24 25 26 25 24 24 27 29 31 32 34 37 38 36 33 32 34 37 39 40 45 47 46 49 51
41 41 41 41 41 40 39 40 40 39 38 37 35 34 34 33 30 28 27 27 26 25 25 26 27 27 30 33 32 32 31 30 28 27 27 29 30 32 34 34 34 35 35 36 35 34 33 32 30 28 27 25 24 23 22 22 22 23 23 23 24 24 24 23 22 24 26 29 30 31 34 36 35 34 34 36 37 38 40 42 43 44 42 42 46
41 41 41 41 40 40 40 40 39 38 38 37 35 33 32 31 28 26 27 28 26 26 26 26 26 26 27 30 32 31 30 28 27 26 27 29 30 31 33 34 34 35 35 35 35 34 32 31 30 29 27 26 24 22 21 21 21 22 22 21 22 22 22 21 22 23 24 27 30 32 33 34 35 36 36 36 37 39 42 41 38 40 40 38 40
42 42 42 42 41 40 40 40 39 38 38 36 34 34 33 31 28 26 27 28 27 27 28 27 26 26 26 28 30 29 28 27 27 26 26 27 29 31 31 32 33 34 34 34 34 33 32 32 31 29 27 25 24 21 20 20 21 21 21 21 22 23 23 23 24 24 25 27 31 33 35 35 37 38 36 35 37 40 41 39 35 36 37 36 41
45 44 44 43 41 40 39 39 39 39 37 36 35 35 34 32 29 27 27 27 26 28 28 27 26 26 25 26 26 27 26 25 25 25 25 25 27 28 30 30 30 30 31 32 32 32 32 33 31 28 26 25 23 21 20 19 20 21 21 23 24 24 25 26 27 28 29 32 35 37 38 37 37 37 34 31 33 35 35 35 36 39 42 46 51
48 46 44 43 41 40 39 39 39 38 37 35 35 35 34 31 29 28 27 26 26 29 29 27 26 25 24 24 23 24 23 21 22 23 23 24 24 26 30 30 27 26 27 29 30 30 30 30 29 27 26 24 21 19 19 19 20 20 20 21 22 23 23 24 24 26 28 30 33 34 33 32 31 30 28 26 28 32 34 38 43 46 50 52 53
49 47 45 43 41 40 39 38 38 37 36 35 34 33 32 31 30 28 27 26 26 28 28 28 27 25 23 22 22 22 20 18 20 21 21 22 22 24 29 31 28 26 25 25 27 28 28 28 27 26 26 23 20 19 19 19 19 19 20 19 20 20 20 20 20 22 23 24 25 26 27 27 26 26 27 29 33 36 39 42 44 44 45 48 49
50 47 44 42 41 39 38 36 37 36 35 33 32 32 31 31 31 29 28 27 27 27 28 29 28 24 21 20 20 20 18 17 18 20 19 20 20 23 29 31 30 27 25 23 23 25 27 27 26 25 24 21 19 18 18 18 18 19 19 18 18 19 18 17 18 19 20 21 23 24 26 27 28 30 31 33 34 35 37 41 41 38 40 44 48
49 46 44 42 39 38 36 35 35 34 33 31 29 29 30 30 30 29 29 29 28 27 28 29 28 24 19 17 17 17 16 15 16 17 17 18 19 23 29 31 30 28 26 23 22 23 24 25 24 24 22 19 18 17 16 16 17 18 17 17 17 18 17 16 18 19 20 21 23 24 25 26 28 29 29 29 30 30 33 37 36 35 38 41 43
46 45 43 40 37 36 34 33 33 33 30 27 26 27 29 30 30 30 30 30 29 29 28 28 27 23 17 14 15 15 15 14 14 15 16 18 19 24 29 31 30 28 27 26 24 22 22 23 23 21 19 17 16 16 15 15 16 17 16 16 16 16 17 18 19 20 20 20 21 22 22 22 23 25 25 26 26 27 29 31 32 32 36 38 38
46 43 39 37 36 35 32 31 33 32 28 23 23 26 28 29 30 31 31 29 29 29 28 27 25 20 14 12 13 14 14 13 12 14 16 18 20 24 28 30 30 28 28 27 25 22 21 22 21 19 18 16 16 15 15 15 16 16 15 14 16 17 17 18 18 19 20 20 20 20 19 20 21 22 23 23 24 25 25 27 28 29 31 34 35
42 38 36 36 36 33 30 30 31 29 24 21 23 26 26 27 28 29 30 28 27 28 27 25 23 19 13 11 12 12 12 11 11 13 15 17 20 24 27 29 29 28 28 28 26 23 22 21 20 18 17 16 15 15 13 13 15 16 15 14 17 17 16 16 17 18 19 18 17 17 17 18 19 20 21 22 22 22 23 23 24 26 28 32 34
39 37 37 37 33 29 28 30 29 25 20 19 23 26 25 24 25 26 28 28 26 26 25 23 20 17 13 11 11 10 11 11 11 13 14 16 19 22 25 27 27 27 28 28 26 24 21 19 18 16 14 14 13 13 14 16 17 17 16 16 17 15 14 15 16 16 15 14 14 14 16 16 18 20 22 22 22 23 23 23 24 26 28 30 32
36 35 35 33 28 25 26 27 25 21 19 20 23 24 24 24 25 26 27 27 26 25 23 19 17 15 13 12 11 10 10 11 11 12 13 14 17 21 23 25 26 26 27 26 25 23 20 18 16 14 12 14 15 16 18 19 19 17 17 16 14 13 13 13 13 11 11 11 12 13 15 17 20 22 25 26 26 26 26 25 25 27 28 30 31
33 33 30 28 26 23 22 23 22 20 20 21 22 22 23 25 26 27 28 26 25 23 20 17 15 13 13 12 11 10 10 11 11 11 12 13 17 21 22 22 24 24 23 22 21 21 19 17 15 13 13 14 16 18 19 19 17 16 14 13 11 11 11 9 8 7 8 10 11 13 16 19 22 24 26 28 28 28 28 26 26 26 28 29 30
32 29 26 26 25 22 20 21 21 20 20 21 21 23 24 26 26 27 27 25 23 20 17 15 13 12 12 12 11 10 9 10 9 10 12 13 17 22 22 20 21 21 20 19 18 17 16 15 14 13 15 17 18 19 18 16 15 13 11 10 9 8 6 4 4 6 7 9 12 15 18 20 23 25 26 27 28 28 28 27 25 25 27 29 29
29 26 23 23 23 21 19 20 21 21 20 21 22 23 24 25 26 27 26 23 20 18 15 13 12 11 11 11 11 10 10 9 9 10 13 14 18 23 24 20 18 19 18 17 17 15 14 15 15 16 18 20 19 18 16 14 12 10 8 8 7 4 1 1 4 6 7 10 13 16 19 21 23 24 25 26 27 28 29 28 27 26 27 29 29
25 23 21 21 20 19 18 20 22 23 22 22 23 24 24 25 26 27 25 23 20 17 14 12 11 10 10 11 11 11 10 10 9 10 13 15 18 23 26 24 19 18 18 18 18 17 17 18 19 20 21 20 17 15 14 12 10 9 7 6 4 3 2 3 4 6 9 11 14 16 18 20 22 22 23 25 27 28 29 30 29 28 27 28 29
23 19 16 17 19 18 18 20 21 23 23 23 23 24 24 25 26 26 24 22 19 17 14 12 11 10 9 9 10 11 11 10 9 10 13 16 18 22 27 27 23 22 22 21 21 21 22 22 23 22 20 17 15 14 13 11 9 8 6 5 5 4 3 4 5 7 9 12 14 16 18 19 20 22 23 25 26 27 28 30 30 30 28 28 29
19 16 15 16 18 17 17 19 20 23 25 24 22 22 23 25 26 26 24 20 17 16 14 12 11 11 10 8 9 10 10 7 7 9 12 15 17 20 26 29 27 24 24 24 25 25 25 24 23 22 19 16 15 14 12 11 9 8 7 7 6 5 4 5 6 8 10 11 13 16 17 19 21 22 23 25 26 27 28 29 30 31 30 29 30
17 14 14 15 15 15 16 19 22 24 24 23 22 22 22 23 25 26 24 20 16 14 13 11 10 10 10 9 9 9 7 5 7 10 12 15 16 18 23 29 29 26 25 26 26 25 25 24 22 20 17 15 15 14 12 10 10 9 9 8 7 5 4 5 6 7 9 11 14 16 18 19 21 22 23 25 26 26 28 29 30 31 32 32 32
21 16 15 15 13 14 17 20 22 24 23 21 22 22 21 21 23 23 22 20 15 12 11 11 10 9 9 8 7 8 7 8 10 12 13 15 17 18 22 29 30 27 26 28 27 25 24 24 22 18 16 16 15 13 11 11 11 11 10 9 7 5 5 5 5 6 9 11 13 16 17 19 21 22 24 25 25 25 27 28 29 31 32 33 33
24 20 17 15 13 14 18 21 21 22 22 20 20 21 20 22 24 24 22 20 15 11 10 11 11 11 10 8 6 6 6 9 13 14 14 16 19 19 21 27 30 27 26 28 28 25 23 22 19 16 16 16 15 12 12 12 12 12 11 9 7 5 5 5 5 6 8 11 13 15 17 19 21 23 24 25 25 25 26 28 29 31 32 33 34
25 23 20 16 14 15 18 20 20 21 21 18 17 19 21 23 25 25 23 20 15 11 11 11 11 12 12 11 8 6 5 6 11 15 16 17 19 20 20 23 27 28 27 27 26 25 23 20 16 14 15 14 13 13 13 13 13 12 11 9 7 6 5 4 4 6 8 10 12 14 16 18 20 22 23 24 25 26 26 28 29 30 31 32 33
25 24 20 16 13 14 17 19 19 20 20 18 17 20 23 23 24 25 24 20 15 11 10 11 11 11 12 12 10 8 6 5 8 14 17 17 20 21 20 20 24 27 28 27 25 24 23 20 16 14 14 14 13 13 14 14 14 13 11 9 7 6 5 4 4 5 8 10 11 13 15 17 19 21 22 24 25 26 27 28 29 30 31 32 32
24 23 20 16 12 12 14 16 17 19 20 18 18 21 22 22 23 24 23 20 17 15 12 10 10 9 9 11 11 9 8 5 5 12 17 18 20 22 23 24 26 26 27 27 26 24 23 20 15 14 14 13 13 14 14 14 14 13 11 9 8 6 4 3 3 5 6 8 10 12 14 15 17 20 21 23 24 26 28 29 30 30 30 31 31
25 23 21 18 14 11 11 13 16 18 18 17 18 19 19 20 22 23 22 20 19 18 17 13 10 8 4 8 11 11 10 6 5 11 17 19 21 24 26 29 29 27 26 28 27 25 23 19 15 14 15 14 14 14 14 14 14 13 11 9 7 6 4 3 3 3 5 7 8 10 12 14 16 18 20 22 24 25 27 28 29 30 30 30 30
25 24 22 21 18 13 11 11 15 17 17 17 17 16 16 19 22 21 19 18 18 18 18 14 9 6 1 7 11 12 11 7 5 10 17 19 21 24 27 29 29 26 24 26 27 25 23 19 15 15 15 15 15 15 15 15 14 13 11 10 8 6 5 4 3 2 4 5 7 9 11 12 15 17 19 20 22 24 26 27 28 29 30 30 29
23 22 22 22 20 17 13 12 13 15 16 17 16 15 14 17 19 19 18 16 16 17 17 13 10 6 2 10 13 13 13 10 9 12 17 19 21 25 27 28 29 26 22 22 24 23 21 18 16 16 16 15 15 16 15 15 14 13 11 10 8 7 6 4 3 1 2 4 5 7 9 11 13 16 17 19 21 23 24 26 26 27 28 29 30
24 22 20 19 19 17 14 13 13 15 15 15 16 16 15 15 17 19 17 14 14 16 16 13 10 5 6 12 13 14 15 13 13 16 19 20 23 25 25 26 28 25 21 19 19 19 18 17 17 17 16 16 16 16 15 15 14 12 11 10 8 7 6 4 3 1 1 2 4 6 7 9 11 14 15 17 20 21 23 24 26 27 28 29 29
27 24 21 18 18 16 14 13 13 13 13 14 15 17 16 14 15 18 16 12 13 15 15 13 9 4 8 11 13 15 16 14 13 16 19 21 23 24 23 24 25 24 21 18 16 15 16 17 17 17 17 17 17 16 15 15 14 12 11 10 8 7 6 5 3 2 1 1 3 4 6 8 10 12 14 16 18 20 22 23 24 25 26 27 28
27 25 21 19 17 16 15 13 12 11 11 12 13 16 16 14 15 17 14 11 12 14 14 12 8 3 8 11 12 14 15 13 11 14 18 20 20 20 20 20 20 20 20 18 15 14 15 16 16 17 17 18 17 16 16 15 13 12 10 9 8 7 6 5 4 3 1 1 2 4 6 8 9 11 13 15 17 19 20 21 23 24 24 25 26
27 25 23 19 16 15 15 13 11 10 10 10 11 13 13 13 14 15 13 11 12 13 12 10 7 2 7 12 11 12 14 13 10 12 16 18 16 16 17 15 14 14 14 14 13 14 15 15 16 16 17 18 18 16 15 13 11 10 9 8 7 7 6 5 4 3 1 1 2 3 5 6 8 10 12 13 15 16 18 20 21 23 23 24 25
28 26 23 19 16 14 13 11 10 9 9 9 10 11 11 12 13 13 13 12 11 12 11 9 7 2 6 12 12 11 12 12 10 11 15 16 13 13 13 12 10 10 10 10 12 13 13 14 14 15 16 17 16 13 11 10 9 8 7 7 6 6 6 5 4 2 1 2 2 3 4 5 7 9 10 12 13 15 16 18 20 21 23 23 24
27 24 21 18 15 13 11 10 10 9 8 8 9 9 10 10 10 10 11 11 11 11 11 9 7 3 4 11 12 10 11 11 9 10 14 15 12 11 11 10 9 10 10 11 13 14 13 13 14 15 16 17 15 13 11 10 8 8 7 6 6 6 6 5 4 2 1 2 3 4 4 5 7 8 9 10 12 13 15 16 18 20 21 22 23
26 23 20 17 14 12 11 10 9 8 8 8 8 8 8 8 7 8 9 10 11 11 10 9 7 4 2 9 11 10 10 10 9 10 13 14 12 11 11 11 11 10 10 11 12 13 13 14 15 16 17 17 16 14 12 9 8 7 7 6 6 6 5 4 3 2 1 2 4 5 5 6 7 7 8 9 10 12 14 16 17 19 21 22 23
24 22 20 17 15 14 13 11 10 10 10 10 9 8 7 6 5 6 8 10 11 11 11 10 8 5 1 8 11 10 9 10 9 10 12 14 12 11 12 14 13 10 8 9 10 11 12 14 16 16 17 17 16 13 11 8 6 5 5 5 5 5 4 4 3 1 2 3 4 5 6 6 7 7 8 9 10 11 13 15 17 19 20 21 22
22 21 19 18 17 16 14 13 13 13 11 10 8 7 5 4 4 6 7 9 10 11 11 11 10 7 1 6 10 10 9 9 10 10 11 12 13 12 13 14 13 9 7 7 9 10 11 14 16 17 17 17 15 12 9 7 5 4 4 4 4 4 4 3 2 1 2 3 5 6 6 7 8 8 9 10 10 11 13 14 16 18 20 21 21
22 20 18 18 18 17 16 16 16 13 11 9 7 6 4 3 3 4 6 8 8 9 11 12 11 8 3 4 10 11 9 8 10 10 11 12 13 13 13 14 13 10 6 5 7 9 11 13 16 17 17 17 15 12 9 6 4 3 3 4 4 4 3 3 2 2 3 4 5 6 7 8 8 9 9 10 11 12 13 15 16 17 19 20 21
21 19 18 18 18 18 18 18 16 14 12 11 8 6 4 3 3 4 6 6 7 9 11 11 10 7 4 2 9 12 10 9 10 11 12 12 13 14 14 13 13 11 6 4 6 9 10 13 15 16 16 16 14 12 9 7 5 4 3 3 4 4 3 3 2 2 3 4 5 6 7 7 8 9 10 11 12 13 15 16 17 18 18 19 20
20 18 18 18 19 19 19 17 16 15 13 11 9 8 6 6 5 5 4 4 6 9 10 10 9 7 4 1 7 11 11 10 10 12 13 13 14 15 15 13 13 11 7 5 6 8 10 12 14 15 15 15 14 13 10 8 6 4 3 3 4 4 3 3 3 3 3 4 5 6 6 7 8 8 9 11 12 14 16 17 18 19 19 19 20
20 17 16 17 19 19 17 16 15 14 12 10 10 10 10 10 9 7 5 4 6 8 8 8 7 5 3 2 6 10 12 11 12 14 14 14 15 16 16 14 13 11 8 7 8 9 10 11 12 13 14 14 13 12 11 8 6 4 3 3 3 3 3 3 3 3 4 4 5 6 6 7 7 8 9 11 13 14 16 18 19 20 21 21 21
Wind_Direction
320 320 320 319 318 317 317 317 317 316 316 316 314 313 312 309 305 302 300 299 297 290 284 283 280 270 263 259 256 254 251 249 253 258 259 258 255 252 249 246 244 244 250 251 241 235 236 239 242 244 247 248 249 251 251 252 253 253 255 258 259 261 260 258 266 275 283 288 291 294 298 299 301 306 308 308 311 314 315 316 316 314 312 310 308
319 319 319 318 318 317 317 317 317 317 315 314 313 312 311 309 306 302 300 300 299 290 279 278 279 272 263 257 253 252 250 247 248 253 256 255 253 250 247 246 244 245 250 249 240 234 235 237 240 243 246 247 248 250 251 250 251 251 252 254 256 259 260 261 266 273 281 288 291 295 296 296 298 304 307 307 310 313 314 316 317 316 314 311 310
318 319 318 318 318 317 316 316 317 318 316 315 315 313 311 309 307 303 299 298 299 293 280 272 274 274 266 258 252 249 248 245 245 248 252 254 252 250 248 247 247 248 251 248 238 232 234 236 239 241 245 247 248 249 250 249 249 250 252 253 256 258 259 261 265 271 279 286 289 291 292 294 298 303 307 307 308 312 314 315 316 316 315 312 311
316 316 316 316 317 317 317 317 317 317 317 317 315 314 312 309 308 305 299 296 297 295 285 270 265 269 268 261 253 248 246 245 244 245 248 251 251 250 249 248 249 251 252 247 238 232 233 235 237 241 244 246 247 247 248 248 248 248 250 252 254 256 257 259 263 270 277 283 287 287 289 294 300 305 309 309 309 312 313 313 314 315 315 314 311
313 312 313 313 314 316 317 318 318 318 317 317 316 314 311 308 307 305 301 297 295 294 290 274 259 260 266 263 255 250 247 245 246 246 247 248 250 250 250 249 251 253 251 244 237 232 232 236 237 240 244 245 246 246 247 247 247 248 249 251 253 255 256 258 262 269 275 280 285 288 290 296 302 306 309 308 310 312 313 314 314 313 313 312 309
311 311 311 312 313 315 317 318 319 318 317 317 316 314 310 307 304 302 299 297 293 292 291 281 261 253 258 261 256 252 250 248 248 249 249 249 249 248 250 250 252 254 251 242 235 230 230 234 237 239 242 244 245 246 247 248 247 247 249 251 253 254 255 259 264 269 275 279 284 288 292 296 299 303 306 307 309 311 313 314 312 307 305 306 308
311 310 310 310 312 314 316 317 318 318 318 318 317 313 308 305 301 299 298 297 294 292 292 287 269 252 251 255 254 251 251 250 249 250 249 249 249 248 249 250 250 252 249 241 233 228 228 231 234 237 240 242 245 246 247 247 247 247 249 250 252 253 256 260 265 270 274 278 283 288 291 293 294 299 304 306 307 309 310 307 303 301 301 304 306
311 310 308 309 310 311 312 314 317 318 318 318 315 311 307 304 300 298 296 295 295 295 295 291 275 256 248 249 250 250 251 250 249 248 248 249 249 248 249 249 249 249 247 240 232 228 228 230 233 236 238 241 243 244 245 246 247 247 247 248 249 252 256 261 266 269 272 277 282 286 289 290 292 298 303 303 304 306 305 300 298 300 303 304 305
311 310 309 309 310 311 311 313 316 317 317 317 314 309 307 305 302 299 296 295 296 297 297 295 280 259 247 245 246 246 248 249 248 247 247 248 249 249 249 249 248 247 245 240 233 228 228 230 233 234 237 239 241 242 244 245 246 245 245 246 248 251 256 259 263 267 271 278 282 285 287 288 292 297 299 298 299 302 303 300 298 301 304 305 306
314 313 312 312 313 312 312 314 317 318 318 317 315 312 309 309 307 302 299 298 298 297 296 295 286 266 249 244 244 244 246 249 249 249 249 250 250 251 250 249 248 246 244 240 234 229 228 229 231 233 235 237 238 239 241 243 245 246 246 247 248 251 254 257 260 267 273 277 279 282 284 286 291 295 294 294 298 301 301 300 301 304 306 306 307
316 315 314 315 316 315 315 318 319 319 319 318 316 314 313 312 308 304 304 303 301 299 296 293 290 274 256 247 245 244 246 249 251 251 250 251 251 251 250 250 248 246 244 242 237 231 228 228 229 231 232 233 235 237 239 242 245 247 247 248 250 252 255 258 265 271 274 275 278 280 282 285 290 291 290 294 299 299 300 302 305 308 308 305 304
317 316 316 317 318 318 319 320 319 318 318 317 315 313 315 315 309 305 308 307 303 300 297 293 291 282 266 254 248 246 247 250 254 254 251 251 251 251 250 248 248 246 245 243 239 233 229 227 227 228 230 232 234 236 238 241 244 247 248 249 251 252 256 263 270 273 274 276 278 278 278 281 285 287 291 298 301 301 303 307 309 308 305 300 296
319 319 319 319 320 321 321 320 319 318 317 315 312 311 313 314 310 306 307 306 303 302 299 296 295 289 276 263 254 250 249 251 255 256 253 249 249 250 251 249 247 247 246 245 242 236 229 225 225 226 226 230 233 234 236 239 242 244 245 244 244 245 246 250 255 258 262 267 271 273 275 278 281 286 293 299 301 303 307 309 307 303 298 293 290
320 319 320 320 321 322 322 320 318 317 316 314 312 313 313 312 312 311 310 308 308 307 304 301 300 295 285 273 263 255 251 251 255 257 254 248 242 242 248 250 247 246 246 244 242 237 229 225 224 223 225 229 233 233 234 237 240 242 242 243 245 246 246 248 252 255 257 260 263 267 272 276 281 288 296 302 302 302 303 301 297 294 290 288 290
318 317 318 320 321 322 322 320 318 318 317 315 313 314 313 312 315 317 315 313 311 311 310 307 305 300 292 280 268 258 254 254 256 257 253 247 239 235 239 244 246 245 244 242 240 236 229 224 222 223 226 230 232 233 234 235 237 239 242 245 248 251 253 258 262 263 263 263 266 271 278 283 288 293 297 298 295 291 291 289 288 289 290 292 295
315 314 314 317 320 321 321 320 319 320 319 316 314 314 314 314 317 319 317 315 313 313 314 313 309 304 295 282 268 259 257 254 253 254 250 247 242 234 234 238 241 242 242 240 236 231 224 221 220 222 226 229 230 231 232 232 234 238 242 247 251 257 263 268 269 269 270 273 275 278 282 284 285 285 285 284 285 286 288 288 289 293 296 297 299
312 311 310 313 318 320 320 319 318 319 317 315 313 314 315 315 317 319 318 316 316 315 316 315 312 305 295 283 269 260 258 254 249 249 247 246 242 232 230 233 236 239 240 239 233 226 221 219 219 222 227 229 228 227 228 231 235 241 246 253 259 265 271 276 277 277 277 278 277 278 280 284 285 285 286 287 288 291 292 292 295 299 299 298 299
312 310 307 310 316 319 319 317 315 314 312 312 312 313 315 315 315 317 317 316 318 317 315 315 312 304 294 282 270 261 257 252 246 244 243 243 238 227 226 230 232 234 237 236 231 224 219 217 219 223 226 226 223 224 227 234 241 247 253 259 265 272 283 288 287 286 285 286 288 289 292 294 294 293 293 292 292 292 291 294 298 299 297 296 299
315 310 306 309 316 317 316 316 313 310 308 308 310 311 313 314 315 316 316 317 318 316 314 313 310 303 292 279 267 260 254 248 242 239 239 239 232 222 223 227 229 230 233 234 232 225 217 215 217 220 221 221 220 222 226 235 244 251 256 262 272 284 292 291 289 291 296 300 302 303 304 304 301 300 300 299 298 296 295 297 299 297 295 297 300
317 311 306 312 318 315 314 315 312 308 307 306 307 308 310 313 315 316 318 319 318 316 313 312 308 301 286 272 265 259 254 248 240 235 234 232 224 218 220 224 225 227 230 232 232 226 217 214 215 216 217 216 217 222 228 233 243 252 258 267 279 285 286 287 294 302 307 311 314 318 320 319 316 314 313 311 309 307 305 304 302 300 299 301 304
320 315 311 317 318 313 313 315 310 307 307 305 306 306 308 312 315 317 320 321 318 315 312 309 306 299 283 270 266 260 254 248 237 231 229 224 216 214 219 222 223 225 228 231 232 228 219 214 214 215 216 217 219 223 221 219 233 251 263 269 274 281 287 296 305 310 313 319 325 331 332 329 329 331 329 326 325 321 317 314 313 310 308 308 308
320 318 315 317 316 312 313 314 310 307 307 305 305 305 308 315 318 320 321 320 316 312 308 305 303 296 283 271 265 259 253 246 235 227 224 217 209 210 218 222 222 224 226 229 231 230 222 215 215 215 216 218 216 211 209 216 233 252 262 264 271 286 299 304 307 310 318 328 334 339 343 342 344 347 346 343 339 333 328 325 324 322 318 315 312
318 318 316 314 312 310 313 313 311 310 309 307 307 308 313 321 324 324 322 318 312 308 304 302 299 292 283 272 263 257 249 241 233 226 221 213 203 204 215 222 223 223 225 228 230 229 223 216 213 212 209 209 208 210 219 232 242 250 256 263 279 295 300 301 307 317 331 341 343 346 352 354 355 355 355 352 347 342 339 335 332 329 323 320 319
316 316 315 311 309 311 314 314 314 314 313 313 314 316 321 327 327 326 323 316 309 304 300 298 296 293 287 275 263 256 247 239 234 225 219 212 201 198 207 221 226 223 223 227 228 226 223 217 210 208 208 209 214 222 231 240 244 248 257 270 284 291 290 298 318 333 345 351 353 357 1 1 1 359 357 355 351 347 345 341 336 332 328 326 329
315 314 314 311 310 312 313 313 314 315 315 319 324 326 328 330 328 323 321 317 310 304 301 297 294 292 288 278 267 260 248 239 235 225 216 210 201 195 197 214 227 224 220 224 226 221 216 210 203 205 209 211 218 227 234 239 243 248 261 271 274 278 284 307 346 354 357 359 3 9 9 6 3 0 358 356 355 353 350 347 342 338 335 336 341
317 316 315 311 310 309 310 313 316 315 316 321 327 330 332 332 328 324 324 323 317 309 304 301 296 292 288 281 271 264 252 240 231 222 214 208 202 195 191 200 220 225 217 218 223 215 204 199 199 204 209 212 220 230 235 237 241 245 254 258 254 254 272 16 18 15 14 12 13 14 13 9 6 2 359 359 360 359 356 354 352 348 344 346 349
325 321 315 310 308 307 309 313 314 315 318 323 329 332 335 334 330 329 329 326 320 313 306 301 297 294 292 284 274 264 254 243 230 219 214 208 203 198 191 189 203 214 207 206 215 211 200 200 204 207 211 215 224 231 230 231 236 238 237 232 216 179 119 66 41 32 27 23 20 17 13 10 7 3 1 3 5 4 2 1 0 358 355 353 354
325 321 313 307 306 307 309 312 314 317 321 326 332 336 337 334 331 332 332 326 318 312 305 296 293 290 287 284 276 268 259 247 230 217 214 209 203 200 194 187 192 204 202 198 203 205 201 203 206 208 213 220 223 222 221 223 228 222 208 192 175 152 112 75 54 42 33 27 23 18 13 10 7 5 6 8 9 8 7 7 7 6 4 1 358
324 320 314 307 306 310 316 321 323 323 323 327 335 338 337 334 332 333 333 328 319 310 302 294 290 285 276 269 267 266 264 251 219 204 209 209 204 201 196 190 191 201 201 197 199 201 202 205 206 207 212 219 217 212 213 215 210 198 185 174 160 138 102 73 58 45 35 28 22 18 14 11 8 8 10 13 13 12 11 11 12 12 11 9 6
340 331 321 312 312 322 329 328 325 324 325 331 337 338 336 336 335 334 334 333 327 317 306 295 287 279 270 263 260 256 247 220 194 193 200 203 200 198 196 193 195 199 200 199 202 203 201 203 206 209 212 214 209 205 205 201 192 180 173 166 151 129 101 75 60 45 33 27 23 18 14 13 11 10 12 15 16 15 15 16 16 16 16 15 12
358 356 340 327 324 331 333 329 324 325 329 335 336 334 333 336 338 339 340 338 333 324 309 295 284 274 265 260 260 251 225 199 190 189 191 191 188 189 192 195 197 199 198 198 201 203 202 203 205 206 207 205 200 196 193 185 178 173 167 158 144 126 107 83 62 45 35 31 27 20 17 15 15 14 15 17 17 17 17 18 18 19 19 19 17
1 3 351 341 336 334 333 331 329 330 333 335 333 331 332 337 338 340 344 344 338 327 310 292 276 267 260 253 249 247 231 208 194 188 187 186 183 184 190 195 199 200 198 198 201 202 202 204 204 201 200 198 193 187 181 175 171 168 163 153 143 131 112 89 66 50 42 35 30 25 21 19 18 18 18 18 18 18 17 18 18 19 20 21 20
354 357 351 346 343 339 334 331 332 334 337 338 333 330 334 336 335 337 343 347 344 331 312 293 273 257 249 244 237 228 229 223 201 190 187 183 180 182 186 192 199 202 199 199 202 203 201 202 202 198 196 194 187 180 175 170 168 166 160 153 146 137 121 100 74 55 46 39 33 28 24 22 22 22 21 20 19 19 18 18 17 18 19 21 22
345 350 349 347 346 340 334 332 332 337 343 343 334 329 330 332 333 337 342 346 345 336 317 300 285 263 243 237 231 209 203 223 210 191 186 180 176 179 180 182 193 204 205 202 203 204 203 201 198 196 196 191 183 177 172 169 169 166 159 155 151 143 130 111 83 60 49 42 34 28 24 22 22 23 23 22 21 20 20 19 18 18 18 19 21
338 343 345 347 343 333 331 332 332 338 347 345 330 325 329 330 332 337 342 344 344 343 335 321 308 289 251 230 222 202 191 205 203 186 182 177 173 175 175 175 185 200 206 204 204 206 206 203 199 198 199 192 181 175 170 168 170 166 160 158 156 148 140 121 91 68 53 44 36 30 25 21 21 23 23 22 21 21 21 20 20 19 18 18 18
335 336 338 341 337 328 328 330 329 333 342 340 329 327 331 328 329 336 342 344 345 346 346 342 330 316 272 216 206 191 179 183 184 178 178 175 173 176 177 179 187 198 202 201 203 206 207 206 203 202 202 194 182 174 170 170 171 168 164 164 163 157 155 141 109 76 55 45 36 30 25 20 20 22 23 23 23 23 22 21 20 19 19 18 18
335 334 334 334 331 325 320 321 323 326 329 331 333 334 328 321 327 337 342 346 348 348 348 351 348 338 301 184 183 177 172 173 172 172 175 174 176 182 184 186 193 200 200 199 203 208 208 207 204 202 200 193 182 175 171 173 174 170 168 171 170 168 167 158 137 99 60 45 35 29 25 19 17 19 20 21 22 23 23 22 20 19 19 18 18
333 333 332 329 326 323 313 308 313 318 319 323 333 336 324 318 330 340 342 346 355 353 351 360 11 14 125 159 164 166 167 166 159 165 172 175 180 188 192 193 198 203 201 196 198 204 206 204 201 197 194 189 182 176 175 177 176 172 173 178 177 175 174 166 158 135 68 47 31 26 23 17 16 17 17 18 20 21 21 20 20 19 19 18 17
333 332 329 324 322 319 311 302 302 307 314 320 329 336 333 327 334 340 341 349 1 359 356 7 23 50 137 151 156 164 169 167 161 165 174 181 187 193 197 198 200 204 204 197 193 195 198 198 195 192 188 184 180 177 176 179 178 176 178 184 185 182 180 176 181 182 91 44 25 23 21 16 15 16 15 15 17 19 19 19 19 18 18 18 18
334 333 329 325 320 314 307 301 296 299 311 319 326 337 343 336 331 336 341 353 5 4 1 10 26 73 149 157 163 175 180 176 169 172 180 186 192 196 200 202 203 204 204 201 194 190 192 194 193 190 186 181 177 176 178 180 180 180 183 187 189 188 186 188 196 200 165 23 13 19 18 13 12 14 13 13 14 16 17 18 19 19 18 17 17
338 335 331 327 321 312 305 303 299 301 310 316 324 337 343 334 328 334 343 357 7 6 4 8 21 76 164 169 173 184 192 189 179 180 186 191 195 197 199 203 206 205 203 201 194 188 190 194 192 189 186 180 176 177 180 182 182 184 188 190 192 194 194 196 200 202 205 339 359 14 15 10 8 8 9 10 12 13 14 15 17 18 18 17 17
343 339 333 329 325 317 312 310 307 308 312 316 325 336 338 330 328 337 347 359 6 7 6 6 16 71 176 181 179 185 196 199 194 190 190 193 196 196 196 201 204 202 199 196 189 187 192 195 192 188 186 182 178 178 181 183 183 186 188 190 193 199 202 202 201 202 219 296 345 7 9 4 2 3 5 7 9 9 10 11 12 15 16 17 16
346 341 337 334 329 324 322 321 319 319 321 325 332 337 334 328 327 337 348 357 4 7 8 8 14 42 186 190 185 181 189 198 201 196 191 191 190 189 191 195 193 184 180 180 181 186 193 195 190 187 184 181 177 173 172 176 179 180 183 189 197 204 208 207 204 204 237 296 331 355 359 357 359 1 1 3 4 6 7 7 8 10 12 14 15
346 342 342 340 333 329 330 333 334 335 335 338 342 341 332 324 326 337 348 356 3 9 10 12 18 32 187 196 193 184 182 187 192 192 189 187 183 181 183 179 166 161 165 170 175 182 188 187 185 183 180 175 169 164 165 170 174 175 176 184 194 204 210 210 208 215 263 302 326 342 348 351 355 357 357 358 0 3 3 4 4 6 8 10 11
348 348 349 347 343 341 343 344 346 352 355 355 355 350 334 322 328 342 350 355 4 9 10 11 18 29 181 197 196 187 178 177 181 184 184 182 177 173 169 159 148 151 162 170 174 180 183 180 179 180 178 172 167 166 168 171 174 177 182 190 198 207 214 215 215 230 280 313 326 333 340 345 348 350 352 355 357 358 359 0 2 3 5 6 7
352 354 356 356 354 355 356 356 0 7 11 10 6 356 341 329 337 351 353 356 2 7 7 9 13 19 173 197 196 190 179 173 172 174 178 178 174 166 160 155 148 143 146 159 170 178 180 178 177 178 176 174 172 170 168 167 168 178 190 199 204 211 217 217 219 248 302 319 324 327 332 338 340 342 345 350 353 355 357 359 359 0 1 4 5
357 1 2 3 4 4 5 8 13 16 16 14 7 356 344 342 358 1 353 351 357 4 9 9 6 3 349 196 196 193 182 169 166 166 169 172 169 162 159 161 159 146 128 139 159 171 176 178 177 175 176 178 178 173 167 164 167 177 187 196 202 208 215 218 228 267 302 312 318 323 326 330 334 337 340 343 348 352 354 355 356 357 357 358 0
1 5 8 11 13 13 14 17 21 23 19 16 14 7 358 10 28 6 344 343 355 7 9 6 357 350 347 188 192 193 183 167 162 160 159 163 165 160 157 162 167 162 138 129 148 162 170 175 176 176 178 181 183 181 177 174 174 179 184 192 200 204 210 218 232 263 291 303 310 315 320 323 327 331 334 338 342 346 349 350 352 353 353 353 354
5 9 12 15 20 22 23 25 31 33 28 25 27 27 23 35 36 1 343 350 7 10 7 2 351 343 352 169 188 191 184 168 159 156 154 157 159 157 154 160 168 171 164 141 144 154 164 173 177 178 180 183 187 189 189 188 187 186 188 191 196 199 206 216 229 257 280 293 301 306 312 317 321 324 329 333 336 339 341 343 345 347 348 348 349
10 11 12 18 26 28 28 32 42 44 38 33 34 37 36 33 25 8 2 16 20 11 5 0 351 346 359 120 179 186 183 170 157 153 153 152 152 152 152 155 162 168 168 159 149 150 157 169 176 180 182 185 188 192 195 197 199 197 191 189 191 196 205 217 235 260 277 286 296 301 305 311 315 317 322 326 329 333 336 337 339 342 343 344 346
11 10 14 23 29 29 29 37 49 52 47 43 43 41 34 25 16 12 14 18 13 5 359 355 351 352 10 103 161 175 177 169 157 151 149 147 146 148 148 150 155 161 165 160 149 146 151 162 171 177 182 186 191 196 200 204 205 203 196 192 194 199 212 232 255 276 285 291 299 301 303 308 312 313 318 324 327 329 332 333 335 338 340 341 342
Height
1389 1386 1383 1380 1377 1375 1372 1370 1368 1365 1363 1362 1359 1358 1356 1354 1352 1350 1348 1346 1345 1344 1342 1341 1338 1337 1336 1336 1337 1338 1339 1340 1341 1343 1345 1346 1348 1350 1352 1353 1354 1356 1359 1360 1361 1362 1364 1366 1367 1369 1370 1370 1370 1370 1370 1371 1371 1371 1372 1372 1372 1373 1372 1372 1369 1365 1366 1367 1366 1365 1365 1364 1363 1362 1361 1359 1359 1358 1356 1355 1353 1351 1348 1346 1345
1385 1382 1379 1376 1373 1371 1369 1366 1364 1362 1359 1357 1355 1353 1352 1350 1348 1346 1344 1342 1341 1339 1338 1336 1334 1333 1332 1332 1333 1334 1334 1335 1336 1338 1339 1340 1342 1344 1346 1348 1349 1351 1353 1354 1356 1358 1360 1361 1363 1365 1366 1366 1366 1366 1366 1367 1367 1367 1368 1368 1368 1369 1369 1369 1367 1364 1362 1363 1363 1362 1361 1361 1359 1358 1357 1355 1353 1353 1351 1349 1348 1345 1343 1341 1339
1382 1379 1376 1373 1370 1367 1365 1362 1360 1358 1355 1353 1351 1349 1347 1345 1343 1342 1339 1338 1336 1334 1332 1331 1330 1328 1328 1327 1328 1329 1330 1331 1332 1333 1334 1335 1337 1339 1341 1343 1344 1346 1348 1349 1351 1354 1355 1357 1359 1361 1362 1362 1362 1362 1362 1363 1363 1363 1364 1364 1364 1365 1366 1366 1365 1363 1359 1359 1360 1359 1358 1357 1356 1354 1353 1351 1349 1348 1345 1343 1342 1340 1338 1336 1334
1379 1377 1374 1370 1367 1364 1361 1358 1356 1353 1351 1348 1346 1344 1342 1340 1338 1336 1334 1332 1331 1329 1327 1326 1325 1324 1323 1323 1323 1324 1326 1327 1328 1328 1329 1330 1332 1334 1336 1337 1339 1341 1342 1344 1346 1348 1350 1352 1355 1357 1357 1358 1358 1358 1358 1358 1359 1359 1359 1360 1360 1360 1362 1362 1361 1360 1358 1355 1356 1356 1355 1354 1352 1351 1349 1347 1345 1344 1341 1338 1337 1334 1332 1331 1329
1376 1373 1370 1367 1364 1361 1358 1355 1352 1349 1346 1344 1341 1339 1337 1335 1333 1331 1329 1327 1325 1323 1322 1320 1319 1319 1318 1318 1318 1320 1321 1322 1323 1324 1324 1325 1326 1328 1330 1332 1335 1336 1337 1339 1341 1343 1345 1347 1351 1353 1353 1353 1354 1354 1354 1355 1355 1356 1356 1356 1357 1357 1358 1358 1357 1357 1356 1353 1351 1352 1352 1350 1348 1347 1345 1343 1340 1338 1336 1334 1332 1329 1327 1326 1324
1373 1369 1366 1363 1360 1356 1354 1350 1348 1345 1342 1339 1337 1334 1332 1330 1329 1327 1324 1322 1319 1318 1317 1315 1314 1314 1313 1313 1314 1315 1317 1318 1318 1319 1320 1321 1322 1323 1325 1327 1329 1331 1332 1334 1335 1337 1340 1343 1346 1348 1348 1349 1350 1350 1350 1351 1351 1352 1353 1353 1354 1354 1354 1354 1354 1353 1352 1350 1349 1348 1348 1347 1345 1343 1342 1340 1337 1333 1330 1328 1328 1326 1324 1321 1318
1368 1365 1362 1359 1356 1352 1350 1347 1344 1341 1338 1336 1333 1331 1329 1326 1324 1322 1319 1317 1314 1313 1311 1310 1309 1308 1308 1309 1309 1310 1312 1313 1313 1314 1315 1316 1317 1318 1320 1322 1324 1326 1328 1329 1330 1332 1334 1337 1340 1342 1343 1345 1346 1346 1347 1347 1348 1348 1349 1350 1351 1351 1350 1350 1350 1350 1349 1348 1346 1345 1344 1343 1342 1339 1338 1337 1335 1331 1329 1326 1323 1323 1321 1318 1313
1364 1361 1358 1355 1352 1349 1346 1344 1341 1338 1335 1333 1330 1327 1325 1323 1320 1318 1315 1312 1310 1308 1307 1305 1304 1303 1303 1303 1304 1305 1307 1307 1308 1309 1310 1311 1312 1314 1316 1317 1319 1321 1323 1324 1326 1327 1329 1333 1335 1337 1339 1341 1342 1342 1343 1343 1344 1344 1345 1347 1347 1347 1347 1346 1347 1347 1346 1345 1343 1342 1340 1339 1338 1336 1334 1334 1331 1329 1328 1325 1320 1317 1315 1312 1309
1359 1356 1353 1350 1347 1344 1342 1339 1337 1335 1332 1329 1326 1323 1321 1318 1316 1313 1310 1308 1306 1304 1303 1301 1299 1298 1298 1298 1298 1299 1300 1301 1302 1304 1305 1306 1308 1310 1312 1313 1315 1316 1318 1320 1321 1323 1325 1328 1331 1333 1335 1337 1338 1338 1339 1339 1340 1340 1342 1343 1343 1343 1343 1343 1344 1344 1343 1341 1339 1339 1337 1335 1334 1333 1331 1330 1328 1325 1325 1323 1317 1313 1310 1305 1302
1354 1351 1348 1345 1342 1339 1337 1335 1332 1330 1327 1325 1322 1319 1316 1314 1311 1308 1306 1304 1303 1301 1299 1297 1295 1293 1293 1293 1293 1294 1294 1295 1297 1299 1301 1302 1304 1306 1307 1309 1311 1312 1313 1315 1316 1318 1321 1323 1326 1329 1331 1332 1334 1334 1335 1336 1336 1337 1338 1339 1339 1340 1340 1340 1341 1340 1339 1338 1336 1336 1334 1331 1330 1330 1328 1326 1325 1322 1320 1318 1313 1309 1307 1300 1295
1349 1346 1343 1340 1337 1335 1332 1330 1327 1325 1323 1320 1318 1315 1312 1310 1307 1304 1301 1300 1299 1297 1295 1293 1291 1289 1288 1288 1288 1288 1289 1290 1293 1295 1297 1298 1299 1301 1303 1304 1307 1308 1309 1310 1312 1314 1317 1319 1322 1325 1326 1328 1329 1330 1331 1332 1333 1334 1335 1335 1336 1336 1337 1337 1337 1337 1336 1334 1333 1333 1331 1327 1326 1326 1325 1323 1321 1319 1317 1315 1311 1306 1304 1300 1292
1345 1342 1339 1336 1333 1331 1328 1326 1323 1321 1318 1316 1313 1310 1308 1305 1302 1300 1298 1296 1294 1293 1291 1289 1287 1285 1284 1283 1283 1283 1284 1286 1289 1291 1293 1294 1295 1297 1298 1300 1302 1304 1305 1306 1308 1310 1313 1315 1318 1320 1322 1324 1326 1327 1328 1328 1330 1330 1331 1332 1333 1333 1334 1334 1334 1333 1333 1331 1330 1329 1327 1325 1323 1322 1322 1320 1318 1315 1313 1310 1308 1304 1301 1299 1293
1340 1337 1334 1331 1329 1326 1324 1321 1319 1316 1314 1312 1309 1306 1303 1300 1298 1296 1294 1292 1290 1289 1287 1285 1283 1281 1280 1279 1279 1279 1280 1282 1285 1287 1289 1291 1292 1293 1294 1296 1298 1299 1301 1303 1304 1307 1309 1311 1313 1316 1318 1321 1321 1323 1324 1325 1326 1327 1328 1329 1329 1330 1331 1331 1331 1331 1330 1329 1327 1325 1324 1323 1320 1319 1319 1318 1315 1311 1308 1306 1304 1302 1298 1296 1291
1335 1332 1329 1327 1324 1322 1320 1317 1314 1312 1310 1308 1305 1302 1299 1296 1294 1292 1290 1288 1286 1284 1282 1281 1279 1277 1275 1274 1274 1275 1276 1278 1281 1283 1285 1287 1289 1290 1290 1291 1293 1294 1297 1299 1300 1303 1304 1306 1309 1312 1315 1317 1318 1319 1321 1322 1323 1324 1324 1325 1325 1326 1327 1327 1327 1327 1327 1326 1323 1321 1321 1320 1318 1316 1316 1316 1313 1309 1306 1303 1300 1298 1294 1291 1288
1330 1328 1325 1322 1320 1318 1315 1313 1310 1307 1305 1303 1300 1297 1295 1292 1290 1288 1286 1284 1282 1280 1278 1276 1274 1273 1271 1271 1270 1271 1272 1275 1277 1279 1281 1284 1287 1287 1286 1287 1289 1290 1292 1295 1297 1299 1301 1303 1306 1309 1312 1314 1315 1316 1317 1319 1320 1320 1321 1321 1322 1322 1323 1323 1324 1323 1322 1322 1320 1318 1318 1317 1316 1314 1313 1313 1310 1307 1304 1301 1297 1294 1290 1285 1282
1325 1323 1320 1318 1316 1313 1311 1308 1305 1302 1300 1297 1295 1293 1291 1289 1286 1284 1281 1280 1278 1277 1274 1272 1271 1269 1268 1267 1267 1267 1269 1271 1273 1275 1278 1280 1283 1284 1283 1283 1285 1286 1288 1291 1293 1295 1298 1300 1303 1306 1309 1310 1312 1313 1314 1315 1316 1317 1317 1318 1318 1319 1319 1320 1321 1320 1319 1318 1317 1316 1315 1313 1312 1311 1310 1309 1306 1303 1300 1296 1293 1291 1287 1280 1274
1320 1318 1316 1313 1311 1309 1306 1304 1300 1298 1295 1293 1290 1288 1286 1284 1282 1280 1278 1276 1274 1273 1271 1269 1267 1266 1265 1263 1263 1264 1266 1268 1270 1272 1274 1276 1278 1280 1279 1279 1281 1283 1285 1288 1291 1293 1295 1298 1301 1303 1306 1308 1309 1310 1311 1312 1313 1313 1313 1314 1315 1315 1316 1317 1317 1316 1315 1315 1314 1313 1311 1310 1308 1307 1306 1304 1302 1299 1295 1290 1288 1287 1283 1276 1269
1313 1312 1310 1308 1306 1304 1301 1299 1296 1294 1291 1289 1286 1284 1282 1280 1278 1277 1275 1272 1271 1270 1268 1266 1264 1263 1261 1260 1261 1261 1263 1265 1266 1268 1270 1272 1274 1276 1276 1277 1278 1281 1283 1286 1288 1291 1293 1296 1299 1301 1303 1305 1306 1307 1308 1309 1309 1310 1310 1311 1312 1312 1313 1313 1312 1312 1312 1311 1310 1309 1307 1306 1304 1302 1301 1299 1297 1295 1291 1286 1284 1282 1278 1273 1267
1308 1306 1304 1303 1301 1298 1296 1294 1292 1290 1288 1285 1283 1281 1278 1276 1275 1273 1271 1269 1267 1266 1264 1263 1261 1259 1258 1257 1258 1259 1260 1261 1263 1264 1266 1268 1270 1273 1274 1274 1276 1278 1281 1283 1286 1289 1292 1294 1296 1299 1301 1303 1304 1305 1306 1306 1306 1307 1308 1308 1309 1309 1309 1309 1309 1308 1308 1307 1306 1304 1303 1302 1300 1298 1296 1294 1292 1290 1287 1283 1280 1278 1273 1270 1267
1303 1301 1299 1297 1295 1293 1291 1290 1287 1286 1284 1282 1280 1278 1275 1273 1271 1270 1268 1266 1264 1262 1260 1259 1257 1255 1254 1254 1254 1255 1257 1258 1260 1261 1263 1265 1267 1270 1271 1271 1273 1276 1278 1281 1285 1288 1290 1291 1294 1297 1299 1301 1302 1303 1304 1305 1304 1304 1305 1306 1306 1306 1306 1306 1306 1305 1304 1303 1302 1300 1299 1298 1296 1294 1291 1289 1287 1284 1282 1279 1277 1274 1270 1266 1263
1299 1296 1294 1292 1290 1288 1287 1285 1283 1282 1280 1278 1276 1274 1272 1271 1269 1266 1264 1262 1260 1258 1256 1255 1253 1251 1251 1251 1251 1252 1254 1255 1257 1258 1260 1262 1265 1267 1267 1268 1271 1274 1277 1280 1283 1285 1287 1290 1292 1295 1297 1298 1300 1301 1302 1303 1303 1302 1303 1304 1304 1304 1304 1304 1303 1302 1301 1300 1299 1298 1296 1295 1293 1291 1288 1285 1283 1280 1278 1276 1273 1270 1267 1263 1259
1295 1292 1290 1288 1286 1285 1283 1281 1280 1278 1276 1275 1272 1270 1269 1267 1266 1263 1261 1258 1256 1254 1252 1251 1249 1248 1248 1248 1249 1250 1251 1252 1254 1256 1257 1259 1261 1263 1264 1266 1269 1272 1275 1278 1281 1283 1285 1288 1291 1293 1295 1296 1298 1299 1301 1301 1301 1301 1301 1302 1301 1301 1302 1301 1300 1300 1299 1298 1297 1296 1294 1292 1290 1288 1285 1282 1279 1277 1274 1272 1269 1266 1263 1260 1257
1291 1288 1286 1284 1283 1281 1280 1278 1276 1274 1273 1272 1269 1267 1266 1264 1262 1260 1257 1255 1252 1251 1249 1248 1246 1246 1245 1246 1247 1248 1249 1250 1252 1253 1255 1256 1258 1261 1263 1264 1267 1271 1273 1276 1278 1281 1284 1287 1289 1291 1293 1295 1297 1298 1298 1298 1299 1299 1299 1299 1299 1300 1300 1299 1298 1298 1297 1296 1295 1294 1292 1289 1287 1284 1281 1278 1276 1273 1270 1267 1265 1262 1260 1257 1254
1286 1284 1283 1281 1279 1278 1277 1275 1274 1272 1271 1269 1267 1265 1263 1260 1258 1256 1254 1251 1249 1247 1246 1244 1243 1243 1243 1244 1245 1246 1247 1248 1250 1251 1253 1254 1256 1259 1262 1264 1265 1269 1272 1274 1276 1279 1282 1285 1287 1289 1291 1293 1295 1295 1296 1296 1297 1297 1297 1298 1298 1298 1298 1297 1297 1296 1295 1294 1293 1291 1289 1287 1284 1282 1279 1277 1274 1270 1267 1265 1262 1259 1257 1254 1251
1282 1280 1279 1277 1276 1275 1274 1273 1271 1270 1269 1267 1265 1263 1260 1257 1255 1253 1250 1248 1245 1244 1242 1241 1241 1241 1241 1242 1243 1244 1245 1247 1248 1250 1251 1253 1255 1257 1261 1263 1264 1266 1270 1273 1275 1277 1280 1283 1286 1288 1290 1291 1292 1292 1293 1294 1295 1295 1296 1296 1297 1296 1296 1296 1295 1294 1293 1293 1291 1289 1287 1285 1283 1281 1279 1276 1273 1269 1266 1263 1260 1257 1254 1251 1247
1278 1276 1275 1274 1273 1272 1271 1270 1269 1268 1266 1265 1262 1260 1257 1255 1253 1250 1247 1245 1242 1241 1240 1239 1239 1239 1239 1240 1241 1242 1243 1245 1247 1248 1250 1251 1253 1255 1259 1262 1263 1265 1268 1271 1273 1276 1279 1281 1283 1285 1287 1288 1289 1290 1291 1292 1293 1294 1294 1295 1295 1295 1294 1294 1293 1293 1292 1291 1289 1287 1286 1284 1283 1281 1279 1276 1273 1268 1265 1261 1258 1255 1252 1248 1245
1274 1273 1272 1271 1270 1269 1268 1268 1266 1265 1264 1262 1260 1258 1255 1253 1250 1247 1244 1242 1240 1238 1237 1237 1237 1237 1237 1238 1238 1240 1241 1243 1245 1247 1248 1250 1252 1254 1256 1260 1262 1263 1266 1269 1272 1275 1277 1279 1280 1282 1284 1286 1288 1289 1289 1290 1291 1292 1293 1293 1293 1293 1293 1292 1292 1291 1291 1289 1288 1287 1285 1284 1283 1281 1279 1276 1272 1268 1264 1260 1256 1253 1250 1246 1243
1272 1270 1269 1268 1268 1267 1266 1265 1263 1262 1261 1259 1257 1256 1253 1251 1248 1245 1242 1240 1238 1236 1235 1235 1235 1235 1236 1236 1237 1238 1239 1241 1243 1245 1246 1248 1250 1252 1254 1258 1260 1261 1264 1267 1270 1272 1274 1275 1277 1280 1282 1284 1286 1287 1287 1288 1289 1290 1291 1291 1291 1291 1291 1291 1291 1290 1290 1289 1288 1287 1285 1284 1283 1281 1278 1275 1271 1268 1264 1260 1256 1253 1249 1246 1242
1270 1268 1267 1266 1266 1265 1264 1263 1261 1260 1258 1257 1255 1254 1252 1250 1247 1243 1241 1239 1236 1235 1234 1233 1233 1233 1234 1234 1235 1236 1237 1239 1241 1243 1245 1247 1249 1250 1253 1256 1258 1259 1262 1265 1267 1269 1271 1274 1276 1278 1281 1282 1284 1285 1286 1287 1288 1288 1289 1290 1290 1290 1290 1290 1290 1290 1289 1288 1287 1286 1285 1284 1282 1280 1278 1274 1271 1268 1264 1261 1257 1253 1249 1246 1242
1268 1266 1266 1265 1264 1264 1262 1261 1260 1258 1256 1255 1253 1252 1251 1249 1246 1242 1240 1237 1235 1233 1233 1232 1232 1232 1232 1233 1233 1234 1236 1238 1239 1241 1243 1245 1247 1249 1252 1254 1256 1258 1261 1264 1266 1268 1270 1273 1275 1277 1279 1280 1282 1283 1284 1285 1286 1287 1288 1288 1289 1289 1289 1289 1289 1289 1289 1288 1287 1286 1284 1283 1282 1280 1277 1274 1271 1268 1265 1261 1257 1254 1250 1246 1242
1267 1265 1265 1265 1263 1262 1261 1259 1258 1256 1255 1253 1251 1250 1249 1248 1246 1243 1239 1236 1234 1233 1232 1231 1231 1231 1231 1232 1233 1233 1235 1236 1238 1239 1241 1243 1245 1248 1250 1252 1255 1257 1259 1262 1264 1266 1269 1271 1273 1275 1277 1279 1280 1281 1283 1284 1285 1286 1287 1287 1288 1288 1289 1289 1289 1289 1288 1287 1286 1285 1284 1283 1282 1279 1276 1273 1271 1269 1266 1262 1258 1255 1251 1247 1243
1268 1265 1265 1264 1262 1261 1260 1258 1256 1255 1253 1252 1250 1249 1247 1246 1244 1242 1239 1236 1233 1232 1231 1230 1230 1229 1230 1231 1232 1233 1234 1235 1236 1238 1240 1242 1244 1246 1249 1251 1254 1256 1258 1261 1263 1265 1267 1270 1272 1274 1276 1277 1279 1280 1281 1282 1283 1284 1285 1286 1287 1287 1288 1288 1289 1288 1288 1287 1286 1285 1284 1283 1281 1279 1276 1274 1271 1269 1266 1263 1259 1255 1252 1248 1244
1268 1266 1264 1262 1261 1260 1259 1257 1255 1254 1252 1250 1248 1247 1246 1244 1242 1240 1238 1236 1233 1231 1230 1229 1229 1228 1228 1229 1231 1232 1233 1234 1236 1237 1239 1241 1243 1245 1248 1250 1253 1255 1257 1260 1262 1264 1267 1269 1271 1273 1274 1276 1277 1279 1280 1281 1282 1283 1284 1285 1286 1287 1288 1288 1288 1288 1288 1287 1286 1285 1284 1283 1282 1279 1277 1274 1272 1269 1266 1263 1260 1256 1253 1249 1246
1268 1266 1264 1261 1260 1259 1258 1256 1255 1253 1251 1249 1247 1246 1245 1243 1241 1238 1236 1235 1233 1231 1229 1228 1227 1227 1227 1228 1229 1231 1233 1234 1235 1236 1238 1240 1243 1245 1248 1251 1252 1254 1256 1259 1261 1263 1266 1268 1270 1272 1273 1275 1276 1278 1279 1280 1281 1282 1284 1285 1286 1287 1287 1288 1288 1288 1287 1287 1286 1285 1284 1283 1282 1280 1277 1275 1272 1270 1267 1264 1261 1257 1254 1250 1247
1267 1264 1262 1260 1258 1257 1256 1255 1254 1252 1251 1249 1247 1246 1244 1242 1240 1238 1235 1233 1232 1230 1228 1227 1225 1225 1226 1226 1228 1230 1232 1233 1235 1236 1238 1240 1242 1245 1248 1250 1251 1252 1255 1258 1260 1262 1265 1267 1269 1271 1272 1274 1275 1277 1278 1279 1281 1282 1283 1284 1285 1286 1287 1287 1287 1288 1287 1286 1286 1285 1284 1283 1282 1279 1277 1275 1273 1270 1267 1265 1262 1259 1255 1252 1249
1265 1263 1260 1258 1257 1255 1254 1253 1253 1252 1250 1248 1246 1245 1243 1241 1240 1237 1235 1233 1231 1229 1227 1225 1224 1224 1224 1225 1227 1229 1231 1233 1234 1236 1238 1240 1242 1244 1246 1247 1248 1250 1253 1256 1259 1261 1264 1266 1268 1270 1272 1273 1275 1276 1278 1279 1280 1281 1283 1284 1285 1286 1286 1287 1287 1287 1287 1286 1286 1285 1284 1283 1282 1280 1278 1276 1273 1271 1268 1266 1263 1260 1257 1254 1251
1264 1262 1260 1258 1256 1254 1252 1252 1251 1251 1250 1248 1246 1244 1242 1241 1239 1237 1235 1233 1231 1229 1227 1225 1224 1223 1223 1224 1226 1228 1231 1233 1234 1236 1238 1240 1242 1244 1246 1247 1247 1249 1252 1255 1258 1261 1263 1266 1268 1269 1271 1273 1274 1276 1277 1279 1280 1281 1282 1284 1284 1285 1286 1286 1287 1287 1287 1286 1286 1285 1284 1283 1282 1280 1278 1276 1274 1271 1269 1267 1265 1262 1259 1256 1253
1264 1262 1260 1258 1255 1253 1251 1250 1249 1249 1248 1247 1245 1243 1242 1240 1239 1237 1235 1234 1231 1229 1227 1225 1224 1223 1223 1224 1226 1229 1231 1233 1235 1236 1238 1241 1242 1244 1245 1247 1248 1250 1253 1256 1258 1261 1263 1265 1267 1269 1271 1272 1274 1275 1277 1278 1280 1281 1282 1283 1284 1285 1286 1286 1286 1287 1286 1286 1286 1285 1284 1283 1282 1280 1278 1276 1274 1272 1270 1268 1266 1263 1261 1258 1255
1261 1260 1259 1257 1254 1252 1250 1249 1248 1247 1246 1245 1244 1242 1241 1240 1238 1237 1235 1234 1232 1230 1228 1226 1225 1224 1225 1226 1227 1229 1231 1233 1235 1236 1238 1240 1241 1243 1245 1247 1249 1251 1254 1256 1258 1261 1263 1265 1267 1268 1270 1272 1274 1275 1277 1278 1280 1281 1282 1283 1284 1285 1285 1286 1286 1286 1286 1286 1286 1285 1284 1283 1282 1280 1278 1276 1274 1273 1271 1269 1267 1264 1262 1259 1256
1259 1257 1256 1254 1252 1251 1249 1248 1247 1246 1245 1244 1242 1241 1240 1239 1238 1236 1235 1233 1232 1230 1228 1227 1226 1226 1227 1227 1229 1230 1232 1233 1235 1237 1238 1240 1241 1243 1245 1247 1249 1252 1254 1257 1259 1261 1263 1264 1266 1268 1270 1272 1273 1275 1277 1278 1279 1281 1282 1283 1284 1284 1285 1285 1286 1286 1286 1286 1285 1285 1284 1283 1282 1280 1279 1277 1275 1273 1271 1269 1268 1265 1263 1261 1258
1257 1255 1254 1252 1251 1249 1248 1247 1246 1245 1244 1243 1241 1240 1239 1238 1237 1236 1235 1233 1232 1231 1229 1228 1227 1227 1228 1229 1230 1231 1233 1234 1236 1237 1239 1240 1242 1244 1246 1248 1250 1253 1255 1257 1259 1261 1262 1264 1266 1268 1270 1271 1273 1275 1277 1278 1279 1281 1282 1283 1283 1284 1285 1285 1286 1286 1286 1286 1285 1285 1284 1283 1282 1280 1279 1277 1275 1273 1272 1270 1269 1267 1265 1263 1260
1257 1254 1252 1251 1249 1248 1246 1245 1245 1244 1243 1242 1240 1239 1238 1237 1237 1236 1235 1234 1233 1232 1230 1229 1228 1228 1228 1229 1230 1232 1233 1235 1236 1238 1239 1241 1243 1245 1247 1249 1251 1253 1255 1257 1259 1261 1262 1264 1266 1268 1270 1272 1273 1275 1277 1278 1279 1281 1282 1282 1283 1284 1284 1285 1285 1285 1285 1285 1285 1284 1284 1283 1282 1280 1279 1277 1276 1274 1272 1271 1269 1268 1266 1264 1261
1256 1254 1251 1249 1248 1246 1245 1244 1243 1242 1241 1240 1239 1238 1237 1237 1236 1235 1235 1234 1233 1232 1231 1230 1229 1229 1229 1230 1230 1232 1233 1235 1237 1238 1240 1242 1244 1246 1248 1250 1252 1253 1255 1257 1259 1260 1262 1264 1266 1268 1270 1272 1274 1276 1277 1279 1280 1281 1281 1282 1283 1284 1284 1284 1285 1285 1285 1285 1285 1284 1283 1283 1282 1280 1279 1278 1276 1275 1273 1271 1270 1268 1266 1265 1263
1255 1252 1250 1248 1246 1245 1244 1243 1241 1240 1239 1238 1238 1237 1237 1236 1235 1235 1235 1234 1233 1232 1232 1231 1230 1229 1230 1230 1231 1232 1234 1235 1237 1239 1240 1242 1244 1246 1248 1250 1252 1254 1255 1256 1258 1260 1262 1264 1266 1268 1270 1272 1274 1276 1277 1278 1279 1280 1281 1282 1283 1283 1284 1284 1284 1284 1284 1284 1284 1284 1283 1282 1281 1280 1279 1278 1276 1275 1273 1272 1270 1269 1267 1265 1263
1254 1251 1248 1246 1245 1244 1242 1241 1240 1239 1238 1237 1237 1236 1236 1235 1235 1235 1235 1234 1233 1232 1232 1231 1231 1230 1230 1231 1231 1232 1234 1236 1237 1239 1241 1243 1245 1247 1249 1251 1253 1254 1255 1257 1258 1260 1262 1264 1266 1268 1270 1272 1274 1275 1277 1278 1279 1280 1281 1282 1282 1283 1283 1283 1284 1284 1284 1284 1284 1283 1282 1282 1281 1280 1279 1278 1277 1275 1274 1272 1270 1269 1267 1265 1263
1253 1250 1247 1246 1244 1243 1241 1240 1239 1237 1236 1236 1235 1235 1235 1235 1234 1234 1235 1234 1233 1232 1232 1232 1231 1231 1230 1231 1232 1233 1234 1236 1238 1240 1241 1244 1246 1248 1250 1252 1253 1255 1256 1258 1259 1261 1262 1264 1266 1268 1270 1272 1274 1275 1277 1278 1279 1280 1281 1281 1282 1283 1283 1283 1283 1283 1283 1283 1283 1282 1282 1281 1280 1279 1279 1278 1277 1275 1274 1273 1271 1269 1267 1265 1264
1252 1250 1247 1245 1243 1242 1240 1239 1237 1236 1236 1235 1235 1234 1234 1234 1234 1235 1235 1234 1233 1233 1232 1232 1232 1231 1231 1231 1232 1233 1235 1236 1238 1240 1242 1244 1246 1248 1250 1252 1254 1256 1257 1258 1260 1261 1263 1265 1266 1269 1271 1273 1274 1276 1277 1278 1279 1280 1281 1281 1282 1282 1283 1283 1283 1283 1283 1283 1282 1282 1281 1280 1280 1279 1278 1277 1276 1275 1274 1273 1271 1269 1268 1266 1264
1251 1249 1247 1245 1243 1241 1239 1238 1236 1235 1235 1235 1234 1234 1234 1234 1234 1234 1234 1234 1233 1233 1232 1232 1232 1231 1231 1231 1232 1234 1235 1237 1239 1241 1243 1245 1247 1249 1251 1253 1255 1257 1258 1259 1260 1262 1263 1265 1267 1269 1271 1273 1275 1276 1277 1279 1279 1280 1281 1281 1282 1282 1282 1283 1283 1283 1282 1282 1282 1281 1281 1280 1279 1278 1277 1277 1276 1275 1274 1272 1271 1270 1268 1266 1264
1251 1249 1247 1245 1243 1241 1239 1237 1236 1235 1235 1234 1234 1234 1234 1234 1234 1234 1234 1234 1233 1233 1232 1232 1232 1231 1231 1231 1233 1234 1236 1238 1240 1242 1243 1245 1247 1249 1252 1254 1256 1258 1259 1260 1261 1262 1264 1266 1267 1269 1271 1273 1275 1276 1278 1279 1279 1280 1281 1281 1281 1282 1282 1282 1282 1282 1282 1282 1281 1281 1280 1280 1279 1278 1277 1276 1275 1274 1273 1272 1271 1269 1268 1266 1265
1251 1249 1247 1245 1243 1241 1240 1238 1237 1236 1235 1235 1235 1235 1235 1235 1235 1235 1234 1234 1234 1233 1233 1232 1232 1231 1231 1232 1233 1235 1237 1239 1241 1242 1244 1246 1248 1250 1252 1255 1256 1258 1259 1261 1262 1263 1264 1266 1268 1270 1272 1273 1275 1276 1278 1279 1279 1280 1281 1281 1281 1281 1282 1282 1282 1281 1281 1281 1281 1280 1280 1279 1278 1278 1277 1276 1275 1274 1272 1271 1270 1268 1267 1266 1264
1252 1250 1248 1246 1243 1242 1241 1239 1237 1236 1237 1237 1236 1236 1236 1236 1235 1235 1235 1234 1234 1233 1233 1232 1232 1232 1232 1233 1234 1235 1238 1240 1242 1243 1246 1247 1249 1251 1253 1255 1257 1259 1260 1261 1263 1264 1265 1267 1268 1270 1272 1273 1275 1276 1277 1279 1279 1280 1280 1281 1281 1281 1281 1281 1281 1281 1281 1281 1280 1280 1279 1278 1278 1277 1276 1275 1274 1273 1272 1270 1269 1268 1266 1265 1264